Find Starlink 31480

NORAD ID: 59306 Int'l Des: 2024-056 Owner: SPXS Country: US Constellation: starlink operational
LEOCIRCULAR

Current View

Loading 3D Globe...

About Starlink 31480

Starlink 31480 (NORAD 59306) is a starlink constellation satellite (v2 mini) launched Mar 24, 2024 by SPXS of US. It operates in LEO, CIRCULAR orbit with a mass of 730.00 kg.

Upcoming Passes

Passes for default location (London). Set your location on the main map for personalized predictions.

Altitude History

Loading altitude history...

Two-Line Element Set

1 59306U 24056L 26264.18114462 .00000760 00000-0 37141-4 0 9990
2 59306 43.0022 206.5539 0001175 265.9231 94.1487 15.27577558141054
Epoch: Sep 21, 2026 • Age: 9 hours

Current Status

Altitude 482.6 km
Apogee / Perigee N/A
Velocity 7.63 km/s
Sub-Earth Point 17.73°N, 171.26°E
Launch Date Mar 24, 2024
Age 2.4 years
Type internet

Technical Details

Classification Payload
Mass 730.00 kg
Dry Mass 700.00 kg
Length 0.30 m
Span 29.00 m
Shape ? Box + pan
Manufacturer SPXS
Bus Type Starlink V2M
Phase Status In Orbit
Owner/State SPXS/US

Most Searched